1498377600.72,8897,21.31,74138.3,20.27,-0.19,0.95,0,*5D
1498377601.96,8898,21.31,74134.3,20.25,-1.09,0.13,0,*6E
1498377603.18,8899,21.31,74132.8,20.25,-0.69,0.75,0,*58
1498377604.35,8900,21.31,74134.0,20.23,-0.49,1.01,0,*6F
1498377605.6,8901,21.31,74138.5,20.21,-0.27,1.33,0,*65
1498377606.78,8902,21.31,74136.0,20.23,0.01,1.63,0,*78
1498377607.96,8903,21.31,74136.0,20.23,0.01,1.71,0,*7A
1498377609.16,8904,21.31,74134.8,20.23,-0.45,1.33,0,*66
1498377610.4,8905,21.31,74136.5,20.25,-0.23,1.71,0,*67
1498377611.61,8906,21.31,74138.3,20.23,0.47,2.55,0,*48
1498377612.83,8907,21.31,74134.5,20.23,0.79,2.69,0,*4B
1498377614.08,8908,21.31,74136.3,20.25,0.79,2.77,0,*4D
1498377615.28,8909,21.31,74134.0,20.25,-0.15,1.75,0,*6A
1498377616.47,8910,21.31,74138.3,20.27,0.05,2.09,0,*74
1498377617.71,8911,21.31,74136.8,20.25,0.41,2.59,0,*42
1498377618.9,8912,21.31,74136.3,20.27,0.79,2.95,0,*48
1498377620.15,8913,21.31,74132.8,20.31,0.51,2.59,0,*44
1498377621.37,8914,21.31,74134.0,20.29,0.13,2.43,0,*47
1498377622.61,8915,21.31,74136.5,20.31,0.29,2.55,0,*41
1498377623.81,8916,21.31,74138.3,20.29,0.09,2.39,0,*73
1498377625.02,8917,21.31,74134.5,20.31,-0.69,1.75,0,*6B
1498377626.27,8918,21.31,74136.0,20.31,-0.97,1.33,0,*67
1498377627.53,8919,21.31,74138.8,20.31,-0.85,1.47,0,*66
1498377628.78,8920,21.31,74138.3,20.31,-1.47,0.79,0,*6F
1498377630.01,8921,21.31,74138.5,20.29,-0.85,1.29,0,*6C
1498377631.21,8922,21.31,74138.3,20.31,-0.45,1.75,0,*63
1498377632.39,8923,21.31,74136.0,20.29,-0.49,1.83,0,*6E
1498377633.56,8924,21.31,74136.3,20.29,-0.07,2.27,0,*5E
1498377634.8,8925,21.31,74138.5,20.31,0.25,2.59,0,*42
1498377636.01,8926,21.31,74136.0,20.31,-0.61,1.83,0,*68
1498377637.23,8927,21.31,74136.8,20.31,-0.37,1.97,0,*6F
1498377638.45,8928,21.31,74134.5,20.33,0.29,2.69,0,*42
1498377639.66,8929,21.31,74134.3,20.33,-0.15,2.17,0,*68
1498377640.88,8930,21.31,74132.8,20.35,-0.69,1.51,0,*6C
1498377642.09,8931,21.31,74136.0,20.35,-0.53,1.75,0,*62
1498377643.29,8932,21.31,74136.0,20.33,-0.49,1.51,0,*6A
1498377644.52,8933,21.31,74136.5,20.33,-1.13,0.75,0,*62
1498377645.75,8934,21.31,74132.8,20.35,-0.81,1.13,0,*68
1498377647.01,8935,21.31,74136.0,20.35,-1.05,0.55,0,*67
1498377648.27,8936,21.31,74132.8,20.35,-1.39,0.41,0,*6E
1498377649.5,8937,21.31,74132.8,20.33,-1.13,0.47,0,*67
1498377650.73,8938,21.31,74138.8,20.35,-1.21,0.41,0,*69
1498377651.96,8939,21.31,74136.3,20.35,-1.91,-0.29,0,*40
1498377653.17,8940,21.31,74134.5,20.35,-1.59,-0.11,0,*41
1498377654.38,8941,21.31,74132.3,20.33,-2.07,-0.49,0,*43
1498377655.62,8942,21.31,74134.3,20.33,-1.95,-0.27,0,*40
1498377656.8,8943,21.31,74132.3,20.33,-2.19,-0.57,0,*41
1498377658.04,8944,21.31,74134.5,20.33,-2.75,-1.09,0,*76
1498377659.27,8945,21.31,74136.3,20.31,-2.83,-1.01,0,*74
1498377660.49,8946,21.31,74132.8,20.29,-2.99,-1.05,0,*71
1498377661.7,8947,21.31,74132.5,20.29,-2.75,-0.77,0,*46
1498377662.91,8948,21.31,74132.8,20.29,-2.75,-0.77,0,*49
1498377664.12,8949,21.31,74134.5,20.29,-3.03,-1.13,0,*7B
1498377665.32,8950,21.31,74134.3,20.27,-3.07,-1.09,0,*72
1498377666.53,8951,21.31,74134.3,20.27,-2.75,-0.57,0,*4D
1498377667.73,8952,21.31,74134.3,20.25,-2.83,-0.69,0,*48
1498377668.94,8953,21.31,74138.0,20.27,-2.51,-0.41,0,*4E
1498377670.13,8954,21.31,74134.8,20.27,-2.31,-0.19,0,*42
1498377671.36,8955,21.31,74136.3,20.25,-2.59,-0.33,0,*47
1498377672.55,8956,21.31,74132.5,20.27,-2.15,0.17,0,*65
1498377673.78,8957,21.31,74134.8,20.27,-2.59,-0.23,0,*46
1498377674.95,8958,21.31,74132.3,20.27,-2.91,-0.53,0,*4A
1498377676.16,8959,21.31,74134.3,20.25,-2.83,-0.33,0,*4C
1498377677.34,8960,21.31,74134.3,20.27,-3.31,-0.69,0,*43
1498377678.52,8961,21.31,74134.8,20.27,-2.83,-0.19,0,*4D
1498377679.75,8962,21.31,74132.8,20.27,-2.55,0.29,0,*6B
1498377681.0,8963,21.31,74132.8,20.31,-2.59,0.25,0,*6D
1498377682.24,8964,21.31,74132.5,20.31,-3.51,-0.57,0,*4B
1498377683.45,8965,21.31,74134.5,20.29,-4.29,-1.13,0,*7A
1498377684.63,8966,21.31,74134.5,20.29,-3.79,-0.61,0,*4F
1498377685.83,8967,21.31,74132.0,20.29,-2.99,0.33,0,*6B
1498377687.04,8968,21.31,74132.0,20.29,-4.29,-0.93,0,*4E
1498377688.25,8969,21.31,74134.8,20.29,-5.07,-1.59,0,*75
1498377689.46,8970,21.31,74132.3,20.29,-4.77,-1.29,0,*7C
1498377690.69,8971,21.31,74134.8,20.27,-5.11,-1.43,0,*7E
1498377691.95,8972,21.31,74132.8,20.25,-5.07,-1.35,0,*79
1498377693.21,8973,21.31,74134.3,20.25,-5.27,-1.47,0,*7F
1498377694.42,8974,21.31,74134.3,20.23,-4.89,-1.21,0,*7B
1498377695.66,8975,21.31,74134.0,20.21,-5.19,-1.25,0,*74
1498377696.86,8976,21.31,74134.8,20.21,-4.57,-0.65,0,*49
1498377698.12,8977,21.31,74132.8,20.21,-5.23,-1.35,0,*7E
1498377699.38,8978,21.31,74132.0,20.21,-5.07,-0.97,0,*4E
1498377700.6,8979,21.31,74134.3,20.21,-5.73,-1.59,0,*7F
1498377701.84,8980,21.31,74134.3,20.15,-5.61,-1.39,0,*7B
1498377703.09,8981,21.31,74132.8,20.15,-5.61,-1.39,0,*7A
1498377704.28,8982,21.31,74132.8,20.15,-6.01,-1.63,0,*73
1498377705.54,8983,21.31,74132.8,20.13,-5.65,-1.13,0,*72
1498377706.74,8984,21.31,74132.8,20.11,-5.43,-1.01,0,*70
1498377707.96,8985,21.31,74134.8,20.11,-5.15,-0.73,0,*46
1498377709.2,8986,21.31,74132.5,20.11,-5.85,-1.35,0,*7F
1498377710.43,8987,21.31,74132.5,20.13,-5.03,-0.61,0,*42
1498377711.7,8988,21.31,74132.3,20.13,-5.89,-1.35,0,*7F
1498377712.94,8989,21.31,74130.3,20.11,-5.81,-1.39,0,*78
1498377714.14,8990,21.31,74132.3,20.11,-4.81,-0.49,0,*47
1498377715.36,8991,21.31,74130.0,20.13,-4.21,-0.11,0,*43
1498377716.56,8992,21.31,74134.0,20.11,-4.77,-0.61,0,*46
1498377717.76,8993,21.31,74134.3,20.11,-3.87,0.25,0,*62
1498377718.99,8994,21.31,74130.8,20.13,-3.03,1.09,0,*54
1498377720.21,8995,21.31,74134.3,20.17,-3.15,0.95,0,*62
1498377721.44,8996,21.31,74132.0,20.21,-2.99,1.09,0,*55
1498377722.65,8997,21.31,74132.5,20.23,-2.87,1.33,0,*50
1498377723.87,8998,21.31,74132.8,20.25,-3.19,0.91,0,*66
1498377725.08,8999,21.31,74132.8,20.27,-2.79,1.25,0,*5C
1498377726.33,9000,21.31,74134.0,20.31,-2.59,1.25,0,*51
1498377727.59,9001,21.31,74130.8,20.31,-2.71,1.59,0,*51
1498377728.77,9002,21.31,74134.8,20.37,-2.15,1.83,0,*51
1498377729.99,9003,21.31,74132.5,20.39,-2.91,1.09,0,*50
1498377731.19,9004,21.31,74134.0,20.43,-1.75,2.31,0,*5B
1498377732.4,9005,21.31,74132.3,20.49,-1.17,2.85,0,*5B
1498377733.59,9006,21.31,74128.8,20.53,-0.33,3.71,0,*6E
1498377734.78,9007,21.31,74132.5,20.57,0.47,4.49,0,*49
1498377735.98,9008,21.31,74132.5,20.67,0.05,4.05,0,*7B
1498377737.19,9009,21.31,74134.3,20.71,0.59,4.67,0,*40
1498377738.42,9010,21.31,74132.5,20.77,0.21,4.37,0,*44
1498377739.59,9011,21.31,74132.0,20.83,0.97,5.15,0,*42
1498377740.8,9012,21.31,74130.0,20.89,-0.61,3.67,0,*6C
1498377742.06,9013,21.31,74130.5,20.95,-1.43,2.59,0,*5D
1498377743.25,9014,21.31,74134.3,20.97,-1.51,2.69,0,*58
1498377744.42,9015,21.31,74130.8,21.01,-0.77,3.25,0,*6B
1498377745.63,9016,21.31,74132.3,21.05,0.67,4.75,0,*42
1498377746.88,9017,21.31,74132.0,21.11,0.95,5.01,0,*49
1498377748.07,9018,21.31,74134.5,21.17,0.91,4.89,0,*45
1498377749.32,9019,21.31,74130.8,21.23,0.79,4.79,0,*4A
1498377750.58,9020,21.31,74134.5,21.27,0.95,4.75,0,*4A
1498377751.82,9021,21.31,74130.3,21.31,1.25,5.07,0,*72
1498377753.03,9022,21.31,74134.5,21.41,1.09,4.89,0,*7F
1498377754.24,9023,21.38,74136.5,21.43,-0.49,3.29,0,*69
1498377755.45,9024,21.31,74130.8,21.49,-1.29,2.55,0,*59
1498377756.67,9025,21.31,74134.8,21.51,-0.07,3.71,0,*5B
1498377757.87,9026,21.31,74134.3,21.53,0.63,4.15,0,*40
1498377759.08,9027,21.31,74132.0,21.61,0.63,4.19,0,*4C
1498377760.29,9028,21.38,74134.8,21.63,1.05,4.59,0,*74
1498377761.51,9029,21.31,74134.0,21.69,0.83,4.19,0,*44
1498377762.7,9030,21.31,74132.5,21.75,0.71,4.07,0,*43
1498377763.89,9031,21.31,74134.8,21.83,1.01,4.37,0,*7E
1498377765.15,9032,21.31,74132.8,21.85,1.33,4.59,0,*72
1498377766.39,9033,21.31,74130.8,21.89,1.37,4.63,0,*72
1498377767.62,9034,21.31,74132.3,21.95,1.29,4.49,0,*7F
1498377768.83,9035,21.31,74134.8,21.97,1.33,4.41,0,*7F
1498377770.07,9036,21.31,74132.5,22.03,1.25,4.33,0,*70
1498377771.31,9037,21.31,74134.0,22.07,2.17,5.07,0,*71
1498377772.53,9038,21.31,74132.5,22.15,2.55,5.49,0,*71
1498377773.75,9039,21.31,74132.5,22.19,2.55,5.41,0,*74
1498377774.97,9040,21.38,74134.8,22.27,1.89,4.59,0,*7D
1498377776.17,9041,21.31,74132.8,22.31,1.63,4.23,0,*72
1498377777.39,9042,21.31,74134.8,22.35,0.83,3.37,0,*48
1498377778.61,9043,21.31,74132.5,22.37,1.67,4.19,0,*7B
1498377779.87,9044,21.38,74132.8,22.41,1.29,3.75,0,*7A
1498377781.06,9045,21.31,74134.5,22.47,0.75,2.99,0,*46
1498377782.25,9046,21.31,74128.5,22.47,0.75,2.91,0,*4D
1498377783.47,9047,21.31,74134.0,22.51,0.41,2.47,0,*47
1498377784.69,9048,21.31,74130.8,22.53,-0.77,1.29,0,*69
1498377785.94,9049,21.31,74132.0,22.57,0.25,2.13,0,*4C
1498377787.16,9050,21.31,74134.8,22.57,-0.61,1.25,0,*6F
1498377788.39,9051,21.31,74134.8,22.61,0.79,2.61,0,*4C
1498377789.6,9052,21.38,74136.0,22.61,0.41,2.31,0,*41
1498377790.84,9053,21.31,74132.0,22.65,0.37,2.05,0,*42
1498377792.03,9054,21.31,74134.0,22.71,-0.03,1.55,0,*5C
1498377793.28,9055,21.38,74136.5,22.73,0.21,1.85,0,*4F
1498377794.52,9056,21.31,74134.5,22.73,-0.19,1.37,0,*63
1498377795.77,9057,21.38,74132.5,22.77,-0.89,0.59,0,*56
1498377796.95,9058,21.31,74132.5,22.79,-1.67,-0.37,0,*43
1498377798.15,9059,21.38,74132.3,22.81,-1.33,-0.03,0,*73
1498377799.36,9060,21.31,74132.5,22.81,-1.33,0.09,0,*5E
1498377800.56,9061,21.38,74132.3,22.83,-1.25,0.13,0,*61
1498377801.76,9062,21.31,74132.5,22.83,-1.47,-0.07,0,*7E
1498377803.01,9063,21.38,74132.0,22.87,-0.89,0.41,0,*57
1498377804.23,9064,21.31,74132.3,22.87,-0.57,0.63,0,*53
1498377805.45,9065,21.31,74130.0,22.93,-0.89,0.37,0,*55
1498377806.67,9066,21.38,74134.0,22.95,-0.61,0.59,0,*5E
1498377807.91,9067,21.31,74134.8,22.95,-0.85,0.41,0,*5C
1498377809.12,9068,21.31,74132.5,23.01,-0.89,0.33,0,*56
1498377810.34,9069,21.31,74134.3,23.03,-0.77,0.41,0,*51
1498377811.56,9070,21.31,74130.0,23.05,-0.85,0.41,0,*52
1498377812.79,9071,21.31,74132.5,23.07,-2.03,-0.73,0,*41
1498377813.97,9072,21.38,74134.8,23.09,-1.67,-0.53,0,*4F
1498377815.21,9073,21.38,74136.0,23.11,-2.63,-1.55,0,*77
1498377816.45,9074,21.31,74130.5,23.15,-3.11,-1.99,0,*70
1498377817.68,9075,21.38,74132.5,23.15,-2.39,-1.35,0,*7C
1498377818.9,9076,21.31,74128.8,23.15,-3.11,-2.23,0,*70
1498377820.14,9077,21.31,74128.3,23.21,-2.75,-1.79,0,*79
1498377821.35,9078,21.31,74126.8,23.19,-4.33,-3.43,0,*72
1498377822.57,9079,21.31,74130.8,23.19,-3.67,-2.83,0,*78
1498377823.78,9080,21.38,74132.3,23.19,-3.67,-2.79,0,*7B
1498377824.97,9081,21.31,74130.0,23.19,-3.95,-3.15,0,*7C
1498377826.23,9082,21.31,74130.0,23.19,-5.85,-5.23,0,*7B
1498377827.44,9083,21.31,74130.0,23.19,-5.27,-4.57,0,*70
1498377828.67,9084,21.31,74130.8,23.17,-4.49,-3.63,0,*70
1498377829.87,9085,21.31,74128.3,23.19,-3.79,-3.07,0,*79
1498377831.08,9086,21.38,74134.0,23.19,-4.29,-3.43,0,*78
1498377832.3,9087,21.38,74134.5,23.21,-4.05,-3.27,0,*7E
1498377833.58,9088,21.31,74132.8,23.21,-3.51,-2.75,0,*71
1498377834.79,9089,21.31,74134.0,23.21,-3.19,-2.27,0,*7B
1498377836.06,9090,21.31,74134.5,23.25,-3.63,-2.75,0,*7D
1498377837.25,9091,21.31,74130.8,23.27,-3.31,-2.39,0,*71
1498377838.47,9092,21.38,74134.8,23.29,-4.09,-3.27,0,*7E
1498377839.69,9093,21.31,74132.5,23.29,-4.09,-2.95,0,*77
1498377840.93,9094,21.38,74132.5,23.31,-4.89,-4.01,0,*7A
1498377842.2,9095,21.31,74132.8,23.29,-5.77,-4.69,0,*7C
1498377843.42,9096,21.31,74130.5,23.27,-7.23,-6.19,0,*77
1498377844.64,9097,21.31,74130.0,23.27,-7.23,-6.19,0,*76
1498377845.85,9098,21.31,74130.5,23.23,-7.95,-6.89,0,*79
1498377847.07,9099,21.31,74128.0,23.19,-8.71,-7.57,0,*76
1498377848.26,9100,21.38,74130.5,23.19,-8.17,-6.89,0,*75
1498377849.53,9101,21.31,74130.8,23.15,-11.07,-9.83,0,*44
1498377850.76,9102,21.38,74132.0,23.05,-12.53,-11.23,0,*77
1498377852.01,9103,21.38,74134.8,22.99,-12.57,-11.19,0,*7F
1498377853.2,9104,21.38,74132.5,22.93,-11.01,-9.71,0,*45
1498377854.42,9105,21.38,74134.3,22.87,-9.79,-8.37,0,*74
1498377855.65,9106,21.38,74134.3,22.83,-8.89,-7.61,0,*71
1498377856.88,9107,21.38,74136.3,22.83,-9.45,-8.11,0,*79
1498377858.07,9108,21.38,74132.3,22.79,-11.19,-10.05,0,*7F
1498377859.29,9109,21.38,74134.8,22.75,-11.11,-9.83,0,*4C
1498377860.51,9110,21.38,74134.3,22.71,-11.55,-10.23,0,*72
1498377861.73,9111,21.38,74130.8,22.65,-11.11,-9.97,0,*41
1498377862.98,9112,21.38,74134.8,22.61,-11.81,-10.49,0,*74
1498377864.24,9113,21.38,74132.3,22.53,-11.45,-10.41,0,*74
1498377865.49,9114,21.38,74132.3,22.53,-12.11,-10.89,0,*75
1498377866.72,9115,21.38,74132.5,22.43,-12.07,-10.97,0,*7D
1498377867.96,9116,21.38,74132.5,22.41,-11.45,-10.49,0,*7A
1498377869.21,9117,21.38,74134.0,22.39,-11.63,-10.67,0,*7C
1498377870.46,9118,21.31,74128.8,22.33,-11.73,-10.93,0,*73
1498377871.69,9119,21.38,74132.0,22.31,-11.33,-10.57,0,*7C
1498377872.89,9120,21.38,74132.8,22.27,-11.15,-10.53,0,*71
1498377874.13,9121,21.38,74136.0,22.19,-12.79,-12.29,0,*7B
1498377875.35,9122,21.38,74132.0,22.17,-12.43,-11.81,0,*7E
1498377876.54,9123,21.31,74130.5,22.13,-11.41,-10.85,0,*7F
1498377877.75,9124,21.38,74134.8,22.13,-11.29,-10.85,0,*76
1498377879.01,9125,21.38,74134.0,22.07,-11.23,-11.07,0,*73
1498377880.21,9126,21.38,74134.8,22.05,-11.01,-11.01,0,*74
1498377881.49,9127,21.31,74128.0,21.99,-10.75,-10.63,0,*74
1498377882.71,9128,21.38,74130.0,21.99,-10.23,-10.09,0,*74
1498377883.96,9129,21.38,74130.0,21.99,-10.49,-10.63,0,*75
1498377885.2,9130,21.38,74132.3,21.95,-10.35,-10.49,0,*72
1498377886.43,9131,21.38,74130.5,21.93,-10.35,-10.75,0,*7A
1498377887.68,9132,21.38,74130.3,21.91,-10.79,-11.15,0,*74
1498377888.93,9133,21.38,74130.3,21.91,-10.63,-11.01,0,*7B
1498377890.15,9134,21.31,74130.0,21.87,-10.85,-11.29,0,*79
1498377891.38,9135,21.38,74132.8,21.87,-10.41,-10.89,0,*7B
1498377892.61,9136,21.38,74132.8,21.87,-10.63,-11.15,0,*7C
1498377893.84,9137,21.38,74132.8,21.83,-10.93,-11.63,0,*77
1498377895.06,9138,21.38,74134.8,21.83,-10.93,-11.59,0,*71
1498377896.28,9139,21.38,74130.8,21.79,-11.11,-11.81,0,*7B
1498377897.51,9140,21.38,74132.0,21.79,-11.11,-11.93,0,*76
1498377898.77,9141,21.31,74128.0,21.79,-11.33,-12.15,0,*7A
1498377899.98,9142,21.38,74134.0,21.75,-12.43,-13.37,0,*70
1498377901.23,9143,21.38,74132.5,21.69,-13.07,-14.01,0,*7F
1498377902.46,9144,21.38,74128.8,21.67,-12.93,-13.83,0,*77
1498377903.7,9145,21.38,74130.0,21.65,-13.61,-14.69,0,*7B
1498377904.93,9146,21.38,74130.0,21.63,-13.29,-14.37,0,*79
1498377906.2,9147,21.38,74132.5,21.57,-14.19,-15.39,0,*74
1498377907.43,9148,21.38,74130.8,21.57,-14.65,-15.95,0,*76
1498377908.69,9149,21.38,74128.0,21.51,-14.19,-15.43,0,*71
1498377909.95,9150,21.38,74132.8,21.47,-13.33,-14.65,0,*74
1498377911.17,9151,21.38,74130.8,21.45,-13.15,-14.43,0,*77
1498377912.45,9152,21.38,74128.5,21.43,-13.87,-15.01,0,*7E
1498377913.68,9153,21.38,74132.8,21.43,-13.93,-15.29,0,*70
1498377914.92,9154,21.38,74132.0,21.41,-13.55,-14.79,0,*7B
1498377916.2,9155,21.38,74130.3,21.35,-13.37,-14.79,0,*7D
1498377917.44,9156,21.38,74134.5,21.35,-14.69,-16.31,0,*7C
1498377918.68,9157,21.38,74130.8,21.29,-14.19,-15.85,0,*7B
1498377919.94,9158,21.38,74134.5,21.27,-14.05,-15.71,0,*7C
1498377921.15,9159,21.38,74130.5,21.25,-13.65,-15.25,0,*7F
1498377922.37,9160,21.38,74132.3,21.25,-13.55,-15.25,0,*76
1498377923.55,9161,21.38,74128.8,21.21,-13.15,-14.89,0,*70
1498377924.77,9162,21.38,74134.3,21.21,-13.23,-15.01,0,*77
1498377925.96,9163,21.38,74132.5,21.21,-13.15,-14.89,0,*72
1498377927.2,9164,21.38,74134.8,21.19,-12.29,-14.05,0,*74
1498377928.42,9165,21.38,74132.0,21.21,-11.33,-13.19,0,*7C
1498377929.61,9166,21.38,74128.8,21.21,-12.47,-14.19,0,*78
1498377930.86,9167,21.38,74130.5,21.19,-13.61,-15.49,0,*73
1498377932.1,9168,21.38,74134.0,21.19,-13.61,-15.67,0,*70
1498377933.31,9169,21.38,74132.5,21.17,-14.43,-16.45,0,*7B
1498377934.52,9170,21.38,74130.5,21.17,-13.51,-15.53,0,*73
1498377935.74,9171,21.38,74130.5,21.15,-13.23,-15.15,0,*77
1498377937.0,9172,21.38,74134.0,21.15,-10.75,-12.61,0,*70
1498377938.21,9173,21.38,74132.8,21.17,-9.93,-11.93,0,*4D
1498377939.43,9174,21.38,74130.8,21.19,-8.59,-10.35,0,*4E
1498377940.64,9175,21.38,74134.0,21.25,-8.71,-10.49,0,*41
1498377941.9,9176,21.38,74134.5,21.27,-8.63,-10.41,0,*4B
1498377943.15,9177,21.38,74134.8,21.31,-8.07,-9.93,0,*78
1498377944.38,9178,21.38,74132.3,21.37,-8.85,-10.75,0,*4B
1498377945.58,9179,21.38,74130.5,21.41,-9.23,-10.89,0,*45
1498377946.79,9180,21.38,74128.3,21.45,-8.45,-10.19,0,*4F
1498377948.0,9181,21.38,74130.3,21.49,-6.89,-8.51,0,*79
1498377949.24,9182,21.38,74134.3,21.57,-6.93,-8.63,0,*7F
1498377950.46,9183,21.38,74132.8,21.63,-6.97,-8.55,0,*78
1498377951.7,9184,21.38,74132.0,21.67,-7.69,-9.37,0,*7E
1498377952.92,9185,21.38,74134.0,21.71,-7.87,-9.37,0,*78
1498377954.15,9186,21.38,74132.8,21.75,-9.61,-11.29,0,*4F
1498377955.36,9187,21.38,74132.3,21.79,-9.01,-10.49,0,*43
1498377956.61,9188,21.38,74134.5,21.81,-9.11,-10.53,0,*41
1498377957.85,9189,21.38,74130.8,21.85,-9.75,-11.29,0,*4A
1498377959.08,9190,21.38,74128.0,21.85,-11.41,-12.97,0,*7A
1498377960.35,9191,21.38,74134.0,21.85,-11.29,-12.65,0,*78
1498377961.6,9192,21.38,74132.8,21.85,-10.57,-11.81,0,*7A
1498377962.84,9193,21.38,74130.8,21.87,-10.63,-11.81,0,*7E
1498377964.1,9194,21.38,74134.8,21.89,-11.33,-12.53,0,*7F
1498377965.34,9195,21.38,74132.0,21.89,-14.79,-16.13,0,*75
1498377966.59,9196,21.38,74134.0,21.87,-16.31,-17.59,0,*79
1498377967.81,9197,21.38,74130.8,21.83,-16.75,-17.93,0,*7A
1498377969.01,9198,21.38,74130.0,21.75,-17.73,-18.49,0,*73
1498377970.25,9199,21.38,74132.3,21.73,-15.85,-16.45,0,*7D
1498377971.5,9200,21.38,74134.3,21.69,-16.93,-17.45,0,*70
1498377972.74,9201,21.38,74130.3,21.65,-17.79,-18.21,0,*75
1498377974.02,9202,21.38,74134.5,21.61,-18.31,-18.93,0,*78
1498377975.24,9203,21.38,74132.8,21.57,-18.65,-19.07,0,*71
1498377976.52,9204,21.38,74132.0,21.51,-17.41,-17.41,0,*75
1498377977.72,9205,21.38,74130.8,21.49,-15.53,-15.67,0,*7A
1498377978.98,9206,21.38,74132.3,21.49,-16.23,-16.09,0,*76
1498377980.26,9207,21.38,74128.3,21.43,-16.31,-16.09,0,*7E
1498377981.48,9208,21.38,74132.0,21.45,-15.57,-15.15,0,*7A
1498377982.7,9209,21.38,74132.5,21.43,-14.69,-14.29,0,*7F
1498377983.98,9210,21.38,74132.3,21.43,-14.47,-13.87,0,*78
1498377985.26,9211,21.38,74134.3,21.43,-14.93,-14.47,0,*7B
1498377986.49,9212,21.38,74132.5,21.41,-15.67,-15.01,0,*73
1498377987.7,9213,21.38,74132.5,21.41,-14.19,-13.19,0,*75
1498377988.93,9214,21.38,74134.8,21.41,-13.47,-12.57,0,*75
1498377990.15,9215,21.38,74134.0,21.41,-14.75,-13.73,0,*75
1498377991.38,9216,21.38,74134.0,21.41,-15.15,-14.05,0,*77
1498377992.64,9217,21.38,74132.0,21.39,-15.25,-14.05,0,*7A
1498377993.88,9218,21.38,74132.3,21.39,-14.97,-13.73,0,*7B
1498377995.13,9219,21.38,74132.8,21.39,-15.35,-14.11,0,*70
1498377996.41,9220,21.38,74132.3,21.39,-17.55,-16.27,0,*79
1498377997.65,9221,21.38,74134.3,21.35,-16.45,-15.25,0,*75
1498377998.91,9222,21.38,74128.8,21.35,-17.03,-15.71,0,*74
1498378000.13,9223,21.38,74132.8,21.29,-15.39,-13.93,0,*79
1498378001.38,9224,21.38,74134.0,21.29,-14.47,-13.01,0,*7D
1498378002.63,9225,21.38,74132.3,21.29,-14.79,-13.33,0,*70
1498378003.83,9226,21.38,74132.3,21.29,-15.07,-13.47,0,*78
1498378005.03,9227,21.38,74130.5,21.29,-14.61,-12.93,0,*70
1498378006.26,9228,21.38,74132.3,21.31,-14.61,-12.97,0,*72
1498378007.47,9229,21.38,74134.8,21.29,-14.89,-13.19,0,*7B
1498378008.7,9230,21.38,74132.8,21.29,-16.83,-14.97,0,*7A
1498378009.93,9231,21.38,74132.3,21.25,-16.83,-14.83,0,*72
1498378011.16,9232,21.38,74134.5,21.25,-16.89,-14.93,0,*7A
1498378012.4,9233,21.38,74128.3,21.23,-16.45,-14.55,0,*77
1498378013.68,9234,21.38,74132.3,21.19,-18.01,-16.09,0,*7C
1498378014.89,9235,21.38,74136.8,21.17,-17.21,-15.11,0,*74
1498378016.1,9236,21.38,74132.0,21.13,-16.93,-14.75,0,*78
1498378017.34,9237,21.38,74134.0,21.11,-16.93,-14.93,0,*73
1498378018.58,9238,21.38,74134.3,21.11,-15.89,-13.93,0,*73
1498378019.8,9239,21.38,74132.5,21.11,-15.63,-13.73,0,*78
1498378021.02,9240,21.38,74128.3,21.07,-14.19,-12.25,0,*7F
1498378022.27,9241,21.38,74130.3,21.11,-13.51,-11.77,0,*76
1498378023.55,9242,21.38,74136.3,21.11,-14.01,-12.07,0,*73
1498378024.77,9243,21.38,74134.5,21.13,-14.01,-12.03,0,*74
1498378026.01,9244,21.38,74134.8,21.15,-12.57,-10.57,0,*73
1498378027.23,9245,21.38,74134.0,21.15,-12.25,-10.23,0,*74
1498378028.45,9246,21.38,74134.8,21.19,-12.39,-10.49,0,*7A
1498378029.69,9247,21.38,74132.3,21.19,-13.93,-11.93,0,*7C
1498378030.91,9248,21.38,74138.0,21.21,-16.13,-14.33,0,*7A
1498378032.12,9249,21.38,74134.0,21.21,-16.69,-14.61,0,*71
1498378033.34,9250,21.38,74132.3,21.17,-16.27,-14.19,0,*79
1498378034.53,9251,21.38,74132.8,21.17,-15.07,-12.93,0,*7D
1498378035.75,9252,21.38,74134.0,21.17,-13.69,-11.67,0,*78
1498378036.97,9253,21.38,74132.8,21.17,-12.75,-10.53,0,*73
1498378038.21,9254,21.38,74134.5,21.19,-12.35,-10.27,0,*7D
1498378039.43,9255,21.38,74134.8,21.23,-11.19,-9.01,0,*44
1498378040.67,9256,21.38,74134.0,21.27,-11.01,-8.81,0,*43
1498378041.92,9257,21.38,74134.0,21.31,-10.41,-8.21,0,*4A
1498378043.15,9258,21.38,74132.5,21.37,-10.71,-8.37,0,*47
1498378044.4,9259,21.38,74132.3,21.43,-9.71,-7.27,0,*73
1498378045.63,9260,21.38,74134.8,21.45,-10.15,-7.73,0,*44
1498378046.87,9261,21.38,74132.5,21.49,-9.83,-7.43,0,*7D
1498378048.09,9262,21.38,74134.8,21.53,-10.23,-7.99,0,*40
1498378049.31,9263,21.38,74134.5,21.59,-10.01,-7.61,0,*4C
1498378050.56,9264,21.38,74132.5,21.63,-9.41,-6.97,0,*76
1498378051.77,9265,21.38,74132.0,21.67,-9.71,-7.27,0,*7A
1498378053.01,9266,21.38,74132.8,21.69,-11.07,-8.67,0,*44
1498378054.25,9267,21.38,74132.8,21.71,-12.75,-10.31,0,*70
1498378055.47,9268,21.38,74134.5,21.71,-12.61,-9.93,0,*4A
1498378056.7,9269,21.38,74134.5,21.71,-12.71,-10.23,0,*79
1498378057.95,9270,21.38,74134.0,21.71,-12.11,-9.41,0,*4B
1498378059.13,9271,21.38,74134.8,21.75,-11.01,-8.55,0,*48
1498378060.35,9272,21.38,74134.8,21.79,-10.01,-7.57,0,*4B
1498378061.59,9273,21.38,74132.3,21.85,-10.89,-8.51,0,*40
1498378062.8,9274,21.38,74134.3,21.85,-11.15,-8.67,0,*46
1498378063.99,9275,21.38,74132.3,21.89,-10.85,-8.45,0,*43
1498378065.18,9276,21.38,74132.5,21.89,-9.27,-6.89,0,*7E
1498378066.4,9277,21.38,74134.5,21.93,-9.75,-7.57,0,*71
1498378067.64,9278,21.38,74132.5,21.95,-9.19,-6.93,0,*7B
1498378068.86,9279,21.38,74134.5,22.03,-10.31,-8.17,0,*46
1498378070.06,9280,21.38,74132.3,22.05,-9.53,-7.49,0,*7E
1498378071.32,9281,21.38,74132.3,22.07,-9.15,-7.05,0,*77
1498378072.56,9282,21.38,74132.3,22.09,-9.57,-7.77,0,*79
1498378073.8,9283,21.38,74134.8,22.11,-10.67,-8.71,0,*43
1498378075.06,9284,21.38,74132.3,22.15,-11.37,-9.61,0,*44
1498378076.3,9285,21.38,74134.5,22.15,-11.51,-9.89,0,*43
1498378077.57,9286,21.38,74134.0,22.15,-10.79,-9.15,0,*4E
1498378078.8,9287,21.38,74132.3,22.17,-9.53,-8.07,0,*7F
1498378080.04,9288,21.38,74136.5,22.19,-8.71,-7.27,0,*72
1498378081.26,9289,21.38,74134.8,22.21,-8.85,-7.53,0,*70
1498378082.52,9290,21.38,74134.0,22.25,-8.81,-7.73,0,*7A
1498378083.73,9291,21.38,74134.3,22.29,-9.19,-8.17,0,*7A
1498378084.94,9292,21.38,74136.8,22.29,-9.19,-8.45,0,*7E
1498378086.17,9293,21.38,74132.8,22.31,-10.63,-10.19,0,*73
1498378087.4,9294,21.38,74138.8,22.31,-10.75,-10.35,0,*7D
1498378088.61,9295,21.38,74138.8,22.33,-9.79,-9.67,0,*75
1498378089.83,9296,21.38,74132.3,22.33,-9.23,-9.27,0,*7D
1498378091.04,9297,21.38,74134.0,22.33,-8.93,-9.23,0,*72
1498378092.25,9298,21.38,74138.3,22.33,-8.17,-8.67,0,*70
1498378093.49,9299,21.38,74138.0,22.37,-5.55,-6.19,0,*79
1498378094.73,9300,21.38,74136.8,22.41,-5.77,-6.69,0,*7E
1498378095.93,9301,21.38,74138.3,22.47,-6.27,-7.53,0,*77
1498378097.17,9302,21.38,74134.3,22.47,-7.43,-9.15,0,*7B
1498378098.36,9303,21.38,74136.8,22.47,-9.31,-11.23,0,*4D
1498378099.55,9304,21.38,74134.3,22.47,-9.89,-12.03,0,*48
1498378100.74,9305,21.38,74132.5,22.43,-8.67,-11.01,0,*4D
1498378101.96,9306,21.38,74136.3,22.43,-8.81,-11.45,0,*46
1498378103.19,9307,21.38,74134.8,22.39,-9.01,-12.11,0,*41
1498378104.43,9308,21.38,74138.8,22.39,-8.81,-12.11,0,*47
1498378105.65,9309,21.38,74132.5,22.39,-7.15,-10.75,0,*44
1498378106.87,9310,21.38,74134.3,22.37,-7.11,-10.97,0,*4A
1498378108.09,9311,21.38,74138.0,22.37,-6.51,-10.85,0,*4D
1498378109.31,9312,21.38,74136.0,22.37,-6.35,-10.93,0,*4B
1498378110.55,9313,21.38,74138.3,22.35,-7.01,-11.73,0,*41
1498378111.77,9314,21.38,74138.3,22.35,-6.89,-12.11,0,*40
1498378112.96,9315,21.38,74136.3,22.35,-6.81,-12.25,0,*4E